CAPE
4 4 9 5 3 1 1 0 0 0 0 0 0 0 0 0 0 0 0 0 0 0 0 0 0 0 0 0 0 0 0 0 0 0 0 0 0 0 0 0 0 0 0 0 176
2 5 8 5 0 0 0 0 0 0 0 0 0 0 0 0 0 0 0 0 0 0 0 0 0 0 0 0 0 0 0 0 0 0 0 0 0 0 0 0 0 0 0 0 169
4 2 5 5 1 0 0 0 0 0 0 0 0 0 0 0 0 0 0 0 0 0 0 0 0 0 0 0 0 0 0 0 0 0 0 0 0 0 0 0 0 0 0 0 56
2 3 6 2 0 0 0 0 0 0 0 0 0 0 0 0 0 0 0 0 0 0 0 0 0 0 0 0 0 0 0 0 0 0 0 0 0 0 0 0 0 0 0 0 0
3 3 6 0 0 0 0 0 0 0 0 0 0 0 0 0 0 0 0 0 0 0 0 0 0 0 0 0 0 0 0 0 0 0 0 0 0 0 0 0 0 0 0 0 0
3 3 0 0 0 0 0 0 0 0 0 0 0 0 0 0 0 0 0 0 0 0 0 0 0 0 0 0 0 0 0 0 0 0 0 0 0 0 0 0 0 0 0 0 0
4 1 0 0 0 0 0 0 0 0 0 0 0 0 0 0 0 0 0 0 0 0 0 0 0 0 0 0 0 0 0 0 0 0 0 0 0 0 0 0 0 0 0 0 0
4 0 0 0 0 0 0 0 0 0 0 0 0 0 0 0 0 0 0 0 0 0 0 0 0 0 0 0 0 0 0 0 0 0 0 0 0 0 0 0 0 0 0 0 0
3 0 0 0 0 0 0 0 0 0 0 0 0 0 0 0 0 0 0 0 0 0 0 0 0 0 0 0 0 0 0 0 0 0 0 0 0 0 0 0 0 0 0 0 0
2 0 0 0 0 0 0 0 0 0 0 0 0 0 0 0 0 0 0 0 0 0 0 0 0 0 0 0 0 0 0 0 0 0 0 0 0 0 0 0 0 0 0 0 0
9 1 1 0 0 0 0 0 0 0 0 0 0 0 0 0 0 0 0 0 0 0 0 0 0 0 0 0 0 0 0 0 0 0 0 0 0 0 0 0 0 0 0 0 0
7 12 5 0 0 0 0 0 0 0 0 0 0 0 0 0 0 0 0 0 0 0 0 0 0 0 0 0 0 0 0 0 0 0 0 0 0 0 0 0 0 0 0 0 0
3 0 1 7 0 0 0 0 0 0 0 0 0 0 0 0 0 0 0 0 0 0 0 0 0 0 0 0 0 0 0 0 0 0 0 0 0 0 0 0 0 0 0 0 0
2 0 0 25 4 0 0 0 0 0 0 0 0 0 0 0 0 0 0 0 0 0 0 0 0 0 0 0 0 0 0 0 0 0 0 0 0 0 0 0 0 0 0 0 0
0 0 0 2 3 7 0 0 0 0 0 0 0 0 0 0 0 0 0 0 0 0 0 0 0 0 0 0 0 0 0 0 0 0 0 0 0 0 0 0 0 0 0 0 0
0 0 0 0 1 0 0 0 0 0 0 0 0 0 0 0 0 0 0 0 0 0 0 0 0 0 0 0 0 0 0 0 0 0 0 0 0 0 0 0 0 0 0 0 0
0 0 0 0 11 0 0 0 0 0 0 0 0 0 0 0 0 0 0 0 0 0 0 0 0 0 0 0 0 0 0 0 0 0 0 0 0 0 0 0 0 0 0 0 0
0 0 0 0 0 0 16 0 0 0 0 0 0 0 0 0 0 0 0 0 0 0 0 0 0 0 0 0 0 0 0 0 0 0 0 0 0 0 0 0 0 0 0 0 0
0 0 0 0 0 1 59 27 0 0 0 0 0 0 0 0 0 0 0 0 0 0 0 0 0 0 0 0 0 0 0 0 0 0 0 0 0 0 0 0 0 0 0 0 0
0 0 0 0 0 0 34 0 0 0 0 0 0 0 0 0 0 0 0 0 0 0 0 0 0 0 0 0 0 0 0 0 0 0 0 0 0 0 0 0 0 0 0 0 0
0 0 0 3 28 2 0 1 0 0 0 0 0 0 0 0 0 0 0 0 0 0 0 0 0 0 0 0 0 0 0 0 0 0 0 0 0 0 0 0 0 0 0 0 0
0 0 0 7 9 1 0 1 0 0 0 0 0 0 0 0 0 0 0 0 0 0 0 0 0 0 0 0 0 0 0 0 0 0 0 0 0 0 0 0 0 0 0 0 0
0 0 0 4 0 0 2 1 0 0 0 0 0 0 0 0 0 0 0 0 0 0 0 0 0 0 0 0 0 0 0 0 0 0 0 0 0 0 0 0 0 0 0 0 0
0 0 0 3 0 0 2 1 1 1 0 0 0 0 0 0 0 0 0 0 0 0 0 0 0 0 0 0 0 0 0 0 0 0 0 0 0 0 0 0 0 0 0 0 0
0 0 0 0 0 0 0 1 1 0 2 1 0 0 0 0 0 0 0 0 0 0 0 0 0 0 0 0 0 0 0 0 0 0 0 0 0 0 0 0 0 0 0 0 0
0 0 0 0 0 0 0 0 0 0 0 0 0 0 0 1 0 1 0 0 0 0 0 0 0 0 0 0 0 0 0 0 0 0 0 0 0 0 0 0 0 0 0 0 0
0 0 0 0 0 0 0 0 0 0 0 0 0 14 12 0 1 0 3 3 0 0 0 0 0 0 0 0 0 0 0 0 0 0 0 0 0 0 0 0 0 0 0 0 0
CIN
0 -1 -1 -1 -1 0 0 0 0 0 0 0 0 0 0 0 0 0 0 0 0 0 0 0 0 0 0 0 0 0 0 0 0 0 0 0 0 0 0 0 0 0 0 0 -385
0 -2 -1 0 0 0 0 0 0 0 0 0 0 0 0 0 0 0 0 0 0 0 0 0 0 0 0 0 0 0 0 0 0 0 0 0 0 0 0 0 0 0 0 0 -390
0 -2 0 0 0 0 0 0 0 0 0 0 0 0 0 0 0 0 0 0 0 0 0 0 0 0 0 0 0 0 0 0 0 0 0 0 0 0 0 0 0 0 0 0 -504
-2 -1 -1 0 0 0 0 0 0 0 0 0 0 0 0 0 0 0 0 0 0 0 0 0 0 0 0 0 0 0 0 0 0 0 0 0 0 0 0 0 0 0 0 0 0
-1 -2 -1 0 0 0 0 0 0 0 0 0 0 0 0 0 0 0 0 0 0 0 0 0 0 0 0 0 0 0 0 0 0 0 0 0 0 0 0 0 0 0 0 0 0
-3 -1 0 0 0 0 0 0 0 0 0 0 0 0 0 0 0 0 0 0 0 0 0 0 0 0 0 0 0 0 0 0 0 0 0 0 0 0 0 0 0 0 0 0 0
-2 -2 0 0 0 0 0 0 0 0 0 0 0 0 0 0 0 0 0 0 0 0 0 0 0 0 0 0 0 0 0 0 0 0 0 0 0 0 0 0 0 0 0 0 0
-1 0 0 0 0 0 0 0 0 0 0 0 0 0 0 0 0 0 0 0 0 0 0 0 0 0 0 0 0 0 0 0 0 0 0 0 0 0 0 0 0 0 0 0 0
-1 0 0 0 0 0 0 0 0 0 0 0 0 0 0 0 0 0 0 0 0 0 0 0 0 0 0 0 0 0 0 0 0 0 0 0 0 0 0 0 0 0 0 0 0
-3 0 0 0 0 0 0 0 0 0 0 0 0 0 0 0 0 0 0 0 0 0 0 0 0 0 0 0 0 0 0 0 0 0 0 0 0 0 0 0 0 0 0 0 0
-8 -1 0 0 0 0 0 0 0 0 0 0 0 0 0 0 0 0 0 0 0 0 0 0 0 0 0 0 0 0 0 0 0 0 0 0 0 0 0 0 0 0 0 0 0
-11 -4 -5 -2 0 0 0 0 0 0 0 0 0 0 0 0 0 0 0 0 0 0 0 0 0 0 0 0 0 0 0 0 0 0 0 0 0 0 0 0 0 0 0 0 0
-3 0 -12 -1 0 0 0 0 0 0 0 0 0 0 0 0 0 0 0 0 0 0 0 0 0 0 0 0 0 0 0 0 0 0 0 0 0 0 0 0 0 0 0 0 0
0 0 0 -14 -4 0 0 0 0 0 0 0 0 0 0 0 0 0 0 0 0 0 0 0 0 0 0 0 0 0 0 0 0 0 0 0 0 0 0 0 0 0 0 0 0
0 0 0 -44 -13 -1 0 0 0 0 0 0 0 0 0 0 0 0 0 0 0 0 0 0 0 0 0 0 0 0 0 0 0 0 0 0 0 0 0 0 0 0 0 0 0
0 0 0 0 -4 0 0 0 0 0 0 0 0 0 0 0 0 0 0 0 0 0 0 0 0 0 0 0 0 0 0 0 0 0 0 0 0 0 0 0 0 0 0 0 0
0 0 0 0 -9 0 0 0 0 0 0 0 0 0 0 0 0 0 0 0 0 0 0 0 0 0 0 0 0 0 0 0 0 0 0 0 0 0 0 0 0 0 0 0 0
0 0 0 0 0 0 -66 0 0 0 0 0 0 0 0 0 0 0 0 0 0 0 0 0 0 0 0 0 0 0 0 0 0 0 0 0 0 0 0 0 0 0 0 0 0
0 0 0 0 0 -42 -7 0 0 0 0 0 0 0 0 0 0 0 0 0 0 0 0 0 0 0 0 0 0 0 0 0 0 0 0 0 0 0 0 0 0 0 0 0 0
0 0 0 0 0 0 -6 0 0 0 0 0 0 0 0 0 0 0 0 0 0 0 0 0 0 0 0 0 0 0 0 0 0 0 0 0 0 0 0 0 0 0 0 0 0
0 0 0 0 -11 0 0 0 0 0 0 0 0 0 0 0 0 0 0 0 0 0 0 0 0 0 0 0 0 0 0 0 0 0 0 0 0 0 0 0 0 0 0 0 0
0 0 0 0 -1 0 0 0 0 0 0 0 0 0 0 0 0 0 0 0 0 0 0 0 0 0 0 0 0 0 0 0 0 0 0 0 0 0 0 0 0 0 0 0 0
0 0 0 -1 0 0 0 0 -1 0 0 0 0 0 0 0 0 0 0 0 0 0 0 0 0 0 0 0 0 0 0 0 0 0 0 0 0 0 0 0 0 0 0 0 0
0 0 0 0 0 0 0 0 0 -1 0 0 0 0 0 0 0 0 0 0 0 0 0 0 0 0 0 0 0 0 0 0 0 0 0 0 0 0 0 0 0 0 0 0 0
0 0 0 0 0 0 0 0 0 0 0 0 0 0 0 0 0 0 0 0 0 0 0 0 0 0 0 0 0 0 0 0 0 0 0 0 0 0 0 0 0 0 0 0 0
-3 0 0 0 0 0 0 0 -1 0 0 0 0 0 0 0 0 0 0 0 0 0 0 0 0 0 0 0 0 0 0 0 0 0 0 0 0 0 0 0 0 0 0 0 0
0 0 0 0 0 0 0 0 0 0 0 0 0 -8 -7 0 -14 0 0 -4 0 0 0 0 0 0 0 0 0 0 0 0 0 0 0 0 0 0 0 0 0 0 0 0 0
Wind_Speed
26 25 26 27 26 26 27 26 27 25 25 25 25 25 24 24 22 22 27 24 21 22 21 20 21 21 20 22 20 19 17 17 20 23 19 14 21 22 17 16 19 19 17 16 20
26 25 26 26 27 27 27 26 26 24 24 24 24 24 23 23 24 26 23 22 21 22 23 23 23 21 22 24 22 20 19 22 19 18 15 7 12 17 19 16 18 18 18 17 20
28 26 26 26 26 27 26 26 24 23 23 24 23 24 22 22 22 25 22 22 21 22 21 20 19 21 21 22 22 20 19 19 17 14 11 8 16 15 15 17 17 17 16 17 19
27 26 26 26 26 26 25 25 23 24 23 22 23 21 21 22 26 22 22 22 21 21 20 20 20 20 21 20 20 18 18 14 13 14 12 10 13 18 16 15 16 17 14 16 18
28 27 26 26 25 26 25 23 23 23 23 22 20 19 19 26 24 20 20 20 20 21 23 21 20 20 20 20 17 19 16 15 14 14 15 15 15 21 22 22 17 9 14 17 18
27 27 27 25 26 27 24 25 23 23 23 22 21 19 22 28 18 17 19 19 21 20 22 21 21 20 18 19 18 18 15 15 17 16 16 17 18 16 18 18 15 9 13 16 18
27 27 27 26 25 26 25 26 25 24 23 23 20 19 23 24 17 16 17 19 19 20 21 20 18 19 16 16 16 14 17 18 18 19 17 15 21 21 24 20 14 4 4 13 18
27 26 27 26 25 25 23 23 22 24 22 22 19 19 25 19 18 15 16 16 17 16 17 17 16 15 16 14 16 17 18 21 17 16 18 16 21 16 18 20 21 21 14 3 18
27 25 27 26 25 25 23 24 24 22 20 19 20 22 27 19 19 18 16 18 16 15 15 15 17 18 16 18 19 20 22 23 22 14 16 16 20 17 13 18 23 21 21 10 8
28 26 25 25 24 24 24 23 20 20 19 18 20 24 24 27 20 18 16 14 18 15 17 19 20 21 21 21 27 23 24 23 23 19 19 20 24 24 27 27 29 30 29 25 13
26 26 24 23 24 22 21 20 23 26 25 27 26 26 24 20 18 20 18 15 16 19 25 22 25 27 23 22 22 20 22 21 20 20 22 27 29 31 32 31 34 34 35 35 34
21 24 25 23 22 22 23 26 27 23 31 27 24 24 20 21 25 22 19 21 22 25 21 24 32 25 21 21 21 19 21 22 21 19 22 27 35 32 35 34 35 34 33 31 31
19 21 23 23 21 23 26 25 21 21 25 29 26 25 24 22 26 26 20 21 24 26 25 27 24 20 21 22 23 24 25 24 24 22 24 30 35 30 26 24 25 25 28 30 29
22 20 22 21 24 25 27 24 20 20 29 32 32 28 23 22 27 21 21 23 24 28 24 26 22 20 22 23 21 27 21 20 22 25 31 24 35 28 28 32 31 29 29 29 26
22 20 22 24 23 28 23 20 19 20 42 27 30 23 24 27 22 27 22 24 28 25 25 28 24 22 24 23 20 23 18 19 22 25 28 28 30 26 23 26 28 25 20 18 18
21 20 21 23 22 23 20 18 18 30 46 29 26 32 29 29 27 24 26 24 21 25 25 26 22 23 24 21 22 14 18 20 21 24 34 28 28 30 22 18 17 18 17 18 19
23 22 19 23 25 23 20 21 30 41 27 32 32 31 33 32 29 30 32 31 30 30 32 29 28 24 21 22 20 20 20 29 30 30 34 25 26 31 24 26 21 24 19 20 20
20 24 24 19 19 22 21 28 40 37 32 23 27 27 36 31 33 31 31 34 32 29 28 34 37 28 24 25 25 24 25 28 33 33 31 24 29 25 19 23 20 18 19 19 19
20 22 26 27 22 21 29 38 43 34 32 28 21 28 34 34 31 33 36 39 35 32 34 33 37 26 26 24 21 28 30 22 28 29 34 30 29 28 20 17 15 16 18 19 18
22 24 29 27 23 25 36 41 41 28 28 28 33 29 34 34 35 34 34 34 35 31 28 31 34 29 26 22 24 26 19 29 29 36 38 34 33 28 19 14 13 15 15 15 15
22 26 24 22 23 32 38 41 36 34 28 33 35 34 33 33 34 35 36 32 33 31 29 27 32 31 27 33 30 27 29 27 25 30 36 38 35 25 21 11 14 18 19 18 18
24 33 23 24 31 32 47 30 33 33 30 30 28 30 32 30 33 34 36 35 27 30 36 30 31 37 34 29 28 30 32 30 35 36 34 37 38 22 9 9 13 17 19 21 19
27 31 24 27 37 34 28 40 32 35 34 31 32 30 27 30 32 33 32 27 24 27 31 30 35 38 37 35 31 35 32 31 31 30 38 39 36 19 15 16 19 21 23 24 26
27 35 29 32 32 33 33 33 32 32 34 33 32 29 29 31 29 31 30 27 25 25 22 23 32 39 44 39 33 37 36 34 35 41 41 42 34 27 24 27 28 27 29 29 26
28 32 29 36 42 35 35 32 33 33 30 28 34 34 32 34 32 30 27 25 24 24 25 25 33 32 32 31 30 33 35 33 37 39 40 43 39 33 30 33 33 32 31 29 30
31 31 30 32 32 38 38 39 36 35 32 35 31 28 32 35 34 35 30 29 29 26 25 25 28 27 31 28 29 34 32 32 36 37 40 41 45 32 34 34 37 37 33 34 34
27 25 28 32 32 39 44 41 40 34 33 34 35 28 30 25 25 25 25 25 26 30 28 27 28 30 36 30 34 44 42 37 36 35 35 44 40 32 34 33 33 32 30 32 32
Wind_Direction
235 236 231 226 226 225 221 222 219 225 228 229 228 228 229 228 225 223 219 222 225 220 221 220 221 222 222 221 225 225 234 233 213 194 208 89 147 163 124 97 158 152 144 180 118
233 233 231 228 227 223 221 223 222 229 228 232 232 230 230 227 222 223 228 224 225 222 219 218 220 221 224 223 228 235 239 222 224 228 237 183 200 107 133 113 148 161 173 147 119
231 232 231 228 226 224 224 225 228 232 230 232 234 232 233 226 225 227 226 224 225 224 224 225 224 225 230 230 234 240 247 244 247 256 272 299 256 255 107 144 149 153 139 117 130
229 231 231 229 226 225 226 227 229 229 232 239 236 236 235 225 220 229 226 226 226 226 225 225 225 229 233 237 241 250 252 264 268 271 281 306 294 266 145 156 169 162 122 124 138
228 229 230 228 227 226 228 232 232 231 232 236 242 239 231 225 230 231 230 228 228 227 225 227 227 234 237 242 248 250 260 266 277 284 289 294 297 271 216 201 287 33 125 140 147
228 229 230 230 229 226 228 228 235 234 237 239 238 240 233 224 243 238 232 231 229 228 228 231 234 240 244 246 250 255 266 270 274 283 292 292 293 297 278 278 295 345 135 151 159
227 229 229 230 232 231 231 230 231 235 237 235 239 236 235 230 244 242 234 234 234 234 231 237 240 243 248 249 257 267 265 273 277 279 291 302 285 284 265 282 304 20 111 162 174
227 228 229 230 232 233 236 237 242 239 241 237 246 239 234 244 244 243 238 238 240 243 240 243 247 249 255 260 263 265 272 268 283 286 289 295 285 301 298 283 287 290 307 148 183
227 230 230 231 232 231 233 236 237 242 242 245 240 235 232 244 238 240 243 235 237 243 247 249 250 250 255 253 259 265 267 268 277 288 292 290 289 297 313 302 286 296 293 313 182
227 230 231 231 232 233 233 235 239 239 242 242 243 234 238 233 237 238 245 238 239 237 243 245 249 248 251 252 254 262 265 270 273 285 285 287 282 284 283 286 278 275 276 288 198
226 230 233 233 233 234 231 229 229 234 234 231 237 236 237 239 241 238 241 241 243 241 238 244 244 243 249 255 266 269 271 275 284 291 286 282 282 280 278 281 274 273 265 260 239
229 231 232 235 235 236 233 233 234 241 230 237 241 240 246 239 233 235 237 239 238 237 242 246 246 252 259 259 266 270 271 276 287 292 289 287 278 282 277 277 279 280 279 280 282
233 233 234 234 236 237 233 236 245 247 239 238 240 239 239 240 237 230 235 242 240 239 242 245 258 253 256 258 260 267 270 276 281 290 293 291 281 287 291 293 292 292 291 288 288
239 237 234 232 234 234 233 240 246 247 240 238 237 239 241 243 238 244 240 243 244 240 243 253 258 253 254 259 262 263 276 282 282 284 279 294 280 287 290 286 287 287 291 291 296
243 240 239 233 237 229 237 242 245 242 234 242 233 246 239 237 237 237 244 246 239 243 245 249 251 252 253 259 263 269 279 281 284 283 284 284 285 289 298 295 293 299 304 307 310
251 244 244 239 238 235 241 237 237 234 235 240 237 233 231 239 242 238 240 251 249 246 251 253 262 257 257 261 263 268 276 284 287 286 276 282 282 285 294 304 307 312 311 309 309
249 243 241 243 233 236 233 227 229 234 242 241 237 233 231 236 237 238 234 240 239 241 243 249 253 260 261 257 263 265 266 271 274 274 274 287 284 280 288 289 295 299 305 309 310
258 247 244 247 245 237 229 226 234 240 237 249 241 231 234 234 240 240 236 239 243 246 246 245 250 251 258 260 258 259 263 265 270 272 278 286 282 289 303 299 295 301 308 314 318
257 247 242 240 246 238 225 227 234 242 236 237 238 233 237 237 242 239 239 240 242 241 247 249 252 260 259 262 259 260 261 273 274 279 278 280 283 287 304 310 311 310 313 316 321
253 246 242 242 243 240 230 233 235 246 242 235 239 241 238 235 240 238 239 247 246 244 254 254 254 260 260 263 266 264 261 264 269 270 272 276 279 281 297 299 315 320 323 329 335
252 243 246 244 243 237 235 232 239 242 245 239 241 242 244 240 241 242 246 254 245 244 249 253 257 260 258 254 253 259 260 268 271 270 272 275 279 291 287 294 308 317 319 315 317
250 239 251 241 235 240 233 239 240 238 243 244 246 245 242 241 241 243 244 249 253 244 242 250 258 256 258 266 264 261 261 259 263 267 272 275 276 298 288 299 315 316 320 320 315
247 243 253 240 234 237 237 238 241 239 240 241 244 247 248 243 246 245 248 254 254 246 245 243 253 254 259 263 264 259 261 261 266 273 268 271 278 276 284 290 304 310 312 313 312
245 237 244 238 241 238 235 239 238 242 243 244 246 248 245 245 253 249 246 253 254 252 253 245 253 253 254 262 261 261 260 261 262 265 268 268 275 273 271 282 295 304 307 309 310
247 244 246 239 236 239 239 242 238 240 241 245 247 243 244 246 247 248 248 248 253 256 254 254 256 258 263 263 265 265 261 259 258 262 267 272 269 272 271 283 292 299 303 305 305
245 246 249 247 243 238 238 238 237 239 239 241 248 247 244 250 246 247 246 250 252 254 253 257 259 260 259 265 267 266 266 265 265 268 270 273 274 281 283 288 290 294 297 299 301
249 254 253 247 244 237 238 240 241 243 248 248 245 247 244 250 248 253 254 255 258 254 254 256 256 259 261 264 268 267 264 265 269 270 272 271 278 283 285 287 291 295 299 301 303